Air Resources Laboratory banner image
Air Resources Laboratory web site National Oceanic and Atmospheric Administration (NOAA)

fl zone


SCZ050-WAZ558-NCZ071-TXZ119-213-PAZ071-DCZ001-FLZ074-172-MI076-
NYZ176-178-MAZ016-IL014-TNZ027-NJZ106-GAZ044-MD014-191100-

...Gateway Observations for Charleston International...

CITY           SKY/WX    TMP DP  RH WIND       PRES   REMARKS
Chas Airport   FAIR      76  74  93 CALM      29.94R
Seattle        CLOUDY    57  51  80 SW5       30.16S
Charlotte      FAIR      75  62  64 E8        30.02R
Dallas DFW     PTCLDY    85  67  54 S13       29.85S
Dallas Love    PTCLDY    87  70  56 SW8       29.86S HX  92
Philladelphia  FAIR      65  50  58 N7        30.06R
Wash National  MOCLDY    73  58  59 N9        30.06R
Baltimore      MOCLDY    68  56  65 NE6       30.05S
Miami          FAIR      80  76  87 VRB5      29.99F
Detroit        FAIR      64  53  67 CALM      30.08S
Newark         FAIR      66  51  58 N12       30.05R
Laguardia      FAIR      69  51  52 N6        30.05R
J F K          FAIR      66  53  63 N8        30.06R
Boston Logan   FAIR      65  49  56 NW10      30.05R
Ft. Lauderdale FAIR      81  78  91 SW5       29.99S
Chicago O'Hare FAIR      68  58  70 E5        30.01F
Chicago Midway FAIR      68  58  70 E6        30.01F
Houston Bush   FAIR      81  78  91 SW7       29.92S
Houston Hobby  FAIR      79  78  97 SW5       29.93R
Nashville      FAIR      70  65  84 NE3       29.97S
Atlanta        FAIR      77  70  79 CALM      29.96R


SCZ050-WAZ558-NCZ071-TXZ119-213-PAZ071-DCZ001-FLZ074-172-MI076-
NYZ176-178-MAZ016-IL014-TNZ027-NJZ106-GAZ044-MD014-191100-

...Gateway Observations for Charleston International...

CITY           SKY/WX    TMP DP  RH WIND       PRES   REMARKS
Chas Airport   FAIR      76  74  93 CALM      29.94R
Seattle        CLOUDY    57  51  80 SW5       30.16S
Charlotte      FAIR      75  62  64 E8        30.02R
Dallas DFW     PTCLDY    85  67  54 S13       29.85S
Dallas Love    PTCLDY    87  70  56 SW8       29.86S HX  92
Philladelphia  FAIR      65  50  58 N7        30.06R
Wash National  MOCLDY    73  58  59 N9        30.06R
Baltimore      MOCLDY    68  56  65 NE6       30.05S
Miami          FAIR      80  76  87 VRB5      29.99F
Detroit        FAIR      64  53  67 CALM      30.08S
Newark         FAIR      66  51  58 N12       30.05R
Laguardia      FAIR      69  51  52 N6        30.05R
J F K          FAIR      66  53  63 N8        30.06R
Boston Logan   FAIR      65  49  56 NW10      30.05R
Ft. Lauderdale FAIR      81  78  91 SW5       29.99S
Chicago O'Hare FAIR      68  58  70 E5        30.01F
Chicago Midway FAIR      68  58  70 E6        30.01F
Houston Bush   FAIR      81  78  91 SW7       29.92S
Houston Hobby  FAIR      79  78  97 SW5       29.93R
Nashville      FAIR      70  65  84 NE3       29.97S
Atlanta        FAIR      77  70  79 CALM      29.96R